This demonstration page uses our WeatherBlox Daily Observations layout. Learn more.

Left ArrowRight Arrow

39.12711, -84.51439

Hourly Observations for October 1, 2016

Temp ( °F °C ) Dew Point ( °F °C ) Humidity (%) Winds ( mph kmh ) Pressure ( in mb ) Visibility ( mi km ) Precip ( " mm )
12:53 am 00:53 Cloudy with Mist and Fog 56 13.3 56 13.3 100 100 NE 3 6 30.03 1017 6 10 0.00 0.00
1:53 am 01:53 Cloudy 55 12.8 55 12.8 100 100 Calm 30.03 1017 7 11 0.00 0.00
2:53 am 02:53 Cloudy 55 12.8 55 12.8 100 100 Calm 30.03 1017 7 11 0.00 0.00
3:53 am 03:53 Cloudy with Light Rain 56 13.3 56 13.3 100 100 Calm 30.03 1017 5 8 0.01 0.25
4:53 am 04:53 Partly Cloudy with Mist and Fog 54 12.2 54 12.2 100 100 Calm 30.02 1017 1 1 0.00 0.03
5:05 am 05:05 Mostly Clear with Mist and Fog 53 11.7 53 11.7 100 100 NW 3 6 30.03 1017 3 4 0.00 0.00
5:12 am 05:12 Mostly Clear with Mist and Fog 54 12 54 12 100 100 Calm 30.03 1017 6 10 0.00 0.00
5:21 am 05:21 Mostly Clear with Mist and Fog 53 11.7 53 11.7 100 100 Calm 30.03 1017 2 3 0.00 0.00
5:32 am 05:32 Mostly Clear with Mist and Fog 54 12 54 12 100 100 Calm 30.03 1017 3 5 0.00 0.00
5:42 am 05:42 Mostly Clear with Mist and Fog 54 12 54 12 100 100 Calm 30.03 1017 1 2 0.00 0.00
5:51 am 05:51 Mostly Clear with Fog 52 11 52 11 100 100 NE 3 6 30.03 1017 1 1 0.00 0.00
5:53 am 05:53 Mostly Clear with Mist and Fog 52 11.1 52 11.1 100 100 NE 3 6 30.03 1017 1 1 0.00 0.00
5:56 am 05:56 Mostly Cloudy with Mist and Fog 52 11 52 11 100 100 NNE 3 6 30.03 1017 1 2 0.00 0.00
6:00 am 06:00 Partly Cloudy with Mist and Fog 52 11 52 11 100 100 Calm 30.03 1017 2 3 0.00 0.00
6:07 am 06:07 Partly Cloudy with Mist and Fog 53 11.7 53 11.7 100 100 Calm 30.03 1017 4 6 0.00 0.00
6:22 am 06:22 Mostly Cloudy with Mist and Fog 54 12 54 12 100 100 ESE 3 6 30.03 1017 4 6 0.00 0.00
6:37 am 06:37 Cloudy with Mist and Fog 54 12.2 54 12.2 100 100 ESE 3 6 30.03 1017 5 8 0.00 0.00
6:53 am 06:53 Cloudy 54 12.2 54 12.2 100 100 Calm 30.04 1017 8 13 0.00 0.00
7:23 am 07:23 Cloudy with Mist and Fog 55 12.8 55 12.8 100 100 Calm 30.06 1018 2 3 0.00 0.00
7:38 am 07:38 Cloudy 54 12 54 12 100 100 SE 3 6 30.06 1018 7 11 0.00 0.00
7:53 am 07:53 Cloudy 55 12.8 55 12.8 100 100 Calm 30.05 1018 7 11 0.00 0.00
8:40 am 08:40 Mostly Cloudy 55 13 55 13 100 100 Calm 30.06 1018 7 11 0.00 0.00
8:53 am 08:53 Partly Cloudy 56 13.3 56 13.3 100 100 Calm 30.06 1018 8 13 0.00 0.00
9:53 am 09:53 Mostly Cloudy 58 14.4 56 13.3 93 93 S 9 15 30.07 1018 10 16 0.00 0.00
10:53 am 10:53 Mostly Cloudy 59 15 56 13.3 90 90 SW 7 11 30.07 1018 10 16 0.00 0.00
11:53 am 11:53 Cloudy 62 16.7 56 13.3 80 80 S 8 13 30.07 1018 10 16 0.00 0.00
12:53 pm 12:53 Mostly Sunny 64 17.8 57 13.9 78 78 S 7 11 30.05 1018 10 16 0.00 0.00
1:53 pm 13:53 Cloudy 65 18.3 57 13.9 76 76 SSW 9 15 30.04 1017 10 16 0.00 0.00
2:53 pm 14:53 Mostly Cloudy 65 18.3 57 13.9 76 76 SSW 8 13 30.01 1016 10 16 0.00 0.00
3:53 pm 15:53 Mostly Cloudy 68 20 57 13.9 68 68 SSW 10 17 30.01 1016 10 16 0.00 0.00
4:53 pm 16:53 Mostly Cloudy 66 18.9 57 13.9 73 73 SSW 8 13 30.01 1016 10 16 0.00 0.00
5:53 pm 17:53 Mostly Cloudy 66 18.9 57 13.9 73 73 S 8 13 30.01 1016 10 16 0.00 0.00
6:53 pm 18:53 Mostly Cloudy 64 17.8 57 13.9 78 78 S 6 9 30.01 1016 10 16 0.00 0.00
7:53 pm 19:53 Mostly Cloudy 61 16.1 59 15 93 93 Calm 30.02 1017 10 16 0.00 0.00
8:53 pm 20:53 Mostly Clear 60 15.6 58 14.4 93 93 Calm 30.02 1017 10 16 0.00 0.00
9:53 pm 21:53 Mostly Cloudy 58 14.4 58 14.4 100 100 S 3 6 30.03 1017 10 16 0.00 0.00
10:53 pm 22:53 Mostly Cloudy 60 15.6 59 15 96 96 SSW 8 13 30.03 1017 10 16 0.00 0.00
11:32 pm 23:32 Cloudy 61 16 61 16 100 100 SSW 8 13 30.00 1016 10 16 0.00 0.00
11:53 pm 23:53 Cloudy 61 16.1 60 15.6 97 97 S 7 11 30.03 1017 10 16 0.00 0.00

Powered by AerisWeather